• Em Portugal
  • Lista de países
  • Para 7 dias
  • Temperatura da água
  • Mapas de satélite
  • Mapa do tempo
  • Widgets de tempo
  • user-avatar
    Iniciar Sessão

    Previsão horária em Recife

    Hoje, 21 Novembro, Terça-feira

    Tempo Temperatura Precipitação Vento Pressão Humidade
    00:00 +27°C° 0 mm 2 m/s 758 mmHg 78%
    01:00 +26°C° 0 mm 2 m/s 758 mmHg 80%
    02:00 +26°C° 0,1 mm 2 m/s 757 mmHg 82%
    03:00 +26°C° 0,1 mm 2 m/s 757 mmHg 83%
    04:00 +26°C° 0,1 mm 2 m/s 757 mmHg 85%
    05:00 +26°C° 0,2 mm 3 m/s 757 mmHg 83%
    06:00 +27°C° 0,2 mm 3 m/s 757 mmHg 82%
    07:00 +27°C° 0,2 mm 3 m/s 757 mmHg 81%
    08:00 +29°C° 0,2 mm 4 m/s 758 mmHg 75%
    09:00 +30°C° 0,2 mm 4 m/s 758 mmHg 70%
    10:00 +32°C° 0,2 mm 5 m/s 758 mmHg 64%
    11:00 +33°C° 0,1 mm 5 m/s 758 mmHg 61%
    12:00 +33°C° 0,1 mm 5 m/s 758 mmHg 59%
    13:00 +34°C° 0,1 mm 5 m/s 757 mmHg 56%
    14:00 +34°C° 0 mm 5 m/s 757 mmHg 57%
    15:00 +33°C° 0 mm 5 m/s 756 mmHg 59%
    16:00 +33°C° 0 mm 5 m/s 756 mmHg 61%
    17:00 +32°C° 0 mm 5 m/s 756 mmHg 66%
    18:00 +29°C° 0 mm 4 m/s 756 mmHg 71%
    19:00 +28°C° 0 mm 4 m/s 756 mmHg 77%
    20:00 +28°C° 0 mm 4 m/s 757 mmHg 79%
    21:00 +28°C° 0 mm 4 m/s 757 mmHg 80%
    22:00 +28°C° 0 mm 4 m/s 758 mmHg 82%
    23:00 +27°C° 0,1 mm 4 m/s 758 mmHg 83%

    Amanhã, 22 Novembro, Quarta-feira

    Tempo Temperatura Precipitação Vento Pressão Humidade
    00:00 +27°C° 0,1 mm 4 m/s 757 mmHg 83%
    01:00 +27°C° 0,1 mm 4 m/s 757 mmHg 84%
    02:00 +27°C° 0,1 mm 4 m/s 757 mmHg 84%
    03:00 +27°C° 0,1 mm 4 m/s 757 mmHg 84%
    04:00 +27°C° 0,1 mm 4 m/s 756 mmHg 84%
    05:00 +27°C° 0,1 mm 4 m/s 757 mmHg 82%
    06:00 +27°C° 0,1 mm 4 m/s 757 mmHg 80%
    07:00 +28°C° 0,1 mm 4 m/s 757 mmHg 78%
    08:00 +29°C° 0 mm 4 m/s 758 mmHg 71%
    09:00 +30°C° 0 mm 5 m/s 758 mmHg 64%
    10:00 +33°C° 0 mm 5 m/s 759 mmHg 57%
    11:00 +33°C° 0 mm 5 m/s 758 mmHg 55%
    12:00 +33°C° 0 mm 5 m/s 758 mmHg 54%
    13:00 +34°C° 0 mm 5 m/s 757 mmHg 52%
    14:00 +33°C° 0 mm 5 m/s 757 mmHg 53%
    15:00 +33°C° 0 mm 5 m/s 756 mmHg 54%
    16:00 +33°C° 0 mm 5 m/s 756 mmHg 55%
    17:00 +32°C° 0 mm 4 m/s 756 mmHg 61%
    18:00 +30°C° 0 mm 4 m/s 756 mmHg 67%
    19:00 +28°C° 0 mm 4 m/s 756 mmHg 73%
    20:00 +28°C° 0 mm 4 m/s 757 mmHg 75%
    21:00 +28°C° 0 mm 4 m/s 757 mmHg 78%
    22:00 +27°C° 0 mm 4 m/s 758 mmHg 81%
    23:00 +27°C° 0,1 mm 4 m/s 757 mmHg 82%

    Depois de amanhã, 23 Novembro, Quinta-feira

    Tempo Temperatura Precipitação Vento Pressão Humidade
    00:00 +27°C° 0,1 mm 4 m/s 757 mmHg 83%
    01:00 +27°C° 0,1 mm 3 m/s 757 mmHg 85%
    02:00 +27°C° 0,2 mm 3 m/s 757 mmHg 85%
    03:00 +27°C° 0,2 mm 3 m/s 756 mmHg 85%
    04:00 +27°C° 0,2 mm 3 m/s 756 mmHg 85%
    05:00 +27°C° 0,2 mm 3 m/s 757 mmHg 84%
    06:00 +28°C° 0,2 mm 3 m/s 757 mmHg 83%
    07:00 +28°C° 0,2 mm 4 m/s 758 mmHg 81%
    08:00 +29°C° 0,1 mm 4 m/s 758 mmHg 75%
    09:00 +30°C° 0,1 mm 4 m/s 758 mmHg 69%
    10:00 +33°C° 0,1 mm 5 m/s 759 mmHg 63%
    11:00 +33°C° 0,1 mm 5 m/s 758 mmHg 61%
    12:00 +34°C° 0,1 mm 5 m/s 758 mmHg 59%
    13:00 +34°C° 0,1 mm 6 m/s 757 mmHg 57%
    14:00 +34°C° 0 mm 6 m/s 757 mmHg 58%
    15:00 +33°C° 0 mm 6 m/s 756 mmHg 60%
    16:00 +33°C° 0 mm 6 m/s 756 mmHg 61%
    17:00 +32°C° 0 mm 5 m/s 756 mmHg 65%
    18:00 +30°C° 0 mm 5 m/s 757 mmHg 70%
    19:00 +28°C° 0 mm 4 m/s 757 mmHg 74%
    20:00 +28°C° 0 mm 4 m/s 757 mmHg 76%
    21:00 +28°C° 0 mm 4 m/s 758 mmHg 78%
    22:00 +27°C° 0 mm 3 m/s 758 mmHg 80%
    23:00 +27°C° 0 mm 3 m/s 758 mmHg 82%

    24 Novembro, Sexta-feira

    Tempo Temperatura Precipitação Vento Pressão Humidade
    00:00 +27°C° 0 mm 3 m/s 757 mmHg 83%
    01:00 +27°C° 0 mm 2 m/s 757 mmHg 84%
    02:00 +26°C° 0 mm 2 m/s 757 mmHg 84%
    03:00 +26°C° 0 mm 2 m/s 757 mmHg 85%
    04:00 +26°C° 0 mm 2 m/s 756 mmHg 85%
    05:00 +27°C° 0,1 mm 3 m/s 757 mmHg 83%
    06:00 +27°C° 0,1 mm 3 m/s 758 mmHg 81%
    07:00 +28°C° 0,1 mm 3 m/s 758 mmHg 79%
    08:00 +29°C° 0,1 mm 4 m/s 758 mmHg 72%
    09:00 +32°C° 0,1 mm 4 m/s 759 mmHg 65%
    10:00 +33°C° 0,1 mm 5 m/s 759 mmHg 58%
    11:00 +33°C° 0 mm 5 m/s 759 mmHg 57%
    12:00 +34°C° 0 mm 5 m/s 758 mmHg 56%
    13:00 +34°C° 0 mm 5 m/s 758 mmHg 54%
    14:00 +34°C° 0 mm 5 m/s 758 mmHg 56%
    15:00 +33°C° 0 mm 5 m/s 757 mmHg 57%
    16:00 +33°C° 0 mm 5 m/s 757 mmHg 59%
    17:00 +32°C° 0 mm 5 m/s 757 mmHg 65%
    18:00 +30°C° 0 mm 5 m/s 757 mmHg 71%
    19:00 +29°C° 0 mm 5 m/s 758 mmHg 77%
    20:00 +28°C° 0,1 mm 5 m/s 758 mmHg 78%
    21:00 +28°C° 0,1 mm 4 m/s 758 mmHg 80%
    22:00 +28°C° 0,1 mm 4 m/s 759 mmHg 82%
    23:00 +28°C° 0,1 mm 4 m/s 759 mmHg 83%

    25 Novembro, Sábado

    Tempo Temperatura Precipitação Vento Pressão Humidade
    00:00 +27°C° 0,1 mm 4 m/s 758 mmHg 84%
    01:00 +27°C° 0,1 mm 4 m/s 758 mmHg 85%
    02:00 +27°C° 0,1 mm 4 m/s 758 mmHg 85%
    03:00 +27°C° 0,1 mm 4 m/s 758 mmHg 86%
    04:00 +27°C° 0,1 mm 4 m/s 757 mmHg 86%
    05:00 +27°C° 0,1 mm 4 m/s 758 mmHg 84%
    06:00 +27°C° 0,1 mm 4 m/s 758 mmHg 82%
    07:00 +28°C° 0,1 mm 4 m/s 759 mmHg 80%
    08:00 +29°C° 0,2 mm 4 m/s 759 mmHg 74%
    09:00 +30°C° 0,2 mm 5 m/s 759 mmHg 68%
    10:00 +32°C° 0,2 mm 5 m/s 760 mmHg 62%
    11:00 +33°C° 0,1 mm 5 m/s 759 mmHg 60%
    12:00 +34°C° 0,1 mm 5 m/s 759 mmHg 58%
    13:00 +34°C° 0,1 mm 5 m/s 758 mmHg 55%
    14:00 +34°C° 0 mm 5 m/s 758 mmHg 57%
    15:00 +33°C° 0 mm 5 m/s 757 mmHg 59%
    16:00 +33°C° 0 mm 5 m/s 757 mmHg 61%
    17:00 +32°C° 0 mm 5 m/s 757 mmHg 66%
    18:00 +30°C° 0 mm 5 m/s 757 mmHg 71%
    19:00 +28°C° 0 mm 5 m/s 758 mmHg 77%
    20:00 +28°C° 0,1 mm 5 m/s 758 mmHg 78%
    21:00 +28°C° 0,1 mm 5 m/s 758 mmHg 80%
    22:00 +28°C° 0,1 mm 4 m/s 759 mmHg 81%
    23:00 +27°C° 0,2 mm 4 m/s 758 mmHg 82%

    26 Novembro, Domingo

    Tempo Temperatura Precipitação Vento Pressão Humidade
    00:00 +27°C° 0,2 mm 4 m/s 758 mmHg 83%
    01:00 +27°C° 0,2 mm 4 m/s 758 mmHg 84%
    02:00 +27°C° 0,2 mm 4 m/s 758 mmHg 84%
    03:00 +27°C° 0,2 mm 4 m/s 757 mmHg 85%
    04:00 +26°C° 0,2 mm 4 m/s 757 mmHg 85%
    05:00 +27°C° 0,2 mm 4 m/s 758 mmHg 83%
    06:00 +27°C° 0,2 mm 4 m/s 758 mmHg 81%
    07:00 +27°C° 0,2 mm 4 m/s 759 mmHg 79%
    08:00 +29°C° 0,1 mm 4 m/s 759 mmHg 73%
    09:00 +30°C° 0,1 mm 5 m/s 759 mmHg 66%
    10:00 +32°C° 0,1 mm 5 m/s 759 mmHg 60%
    11:00 +33°C° 0,1 mm 5 m/s 759 mmHg 58%
    12:00 +33°C° 0,1 mm 5 m/s 758 mmHg 55%
    13:00 +34°C° 0,1 mm 5 m/s 758 mmHg 53%
    14:00 +33°C° 0 mm 5 m/s 757 mmHg 55%
    15:00 +33°C° 0 mm 5 m/s 757 mmHg 57%
    16:00 +32°C° 0 mm 5 m/s 756 mmHg 59%
    17:00 +30°C° 0 mm 5 m/s 757 mmHg 63%
    18:00 +29°C° 0 mm 4 m/s 757 mmHg 68%
    19:00 +28°C° 0 mm 4 m/s 757 mmHg 73%
    20:00 +28°C° 0 mm 4 m/s 757 mmHg 75%
    21:00 +27°C° 0 mm 3 m/s 758 mmHg 77%
    22:00 +27°C° 0 mm 3 m/s 758 mmHg 78%
    23:00 +27°C° 0 mm 3 m/s 758 mmHg 79%
    Mostrar mais